Weather History for Cullman, AL

Change the Weather History Date:

Sunday, June 17, 2012

  Actual Average (KHSV) Record (KHSV)
Temperature  
Mean Temperature 74 °F 78 °F  
Max Temperature 88 °F 89 °F 103 °F (1918)
Min Temperature 60 °F 68 °F 51 °F (1917)
Degree Days  
Heating Degree Days 0 0  
Month to date heating degree days 0  
Since 1 June heating degree days 0  
Since 1 July heating degree days 3001  
Cooling Degree Days 9 13  
Month to date cooling degree days 195  
Year to date cooling degree days 458  
Since 1 June cooling degree days 195  
Growing Degree Days 24 (Base 50)    
Moisture  
Dew Point 62 °F    
Average Humidity 68    
Maximum Humidity 100    
Minimum Humidity 34    
Precipitation  
Precipitation 0.00 in 0.14 in 1.27 in (1964)
Month to date precipitation 2.40  
Year to date precipitation 26.77  
Snow  
Snow 0.00 in - - ()
Month to date snowfall  
Since 1 June snowfall  
Since 1 July snowfall  
Snow Depth -    
Sea Level Pressure  
Sea Level Pressure 30.11 in    
Wind  
Wind Speed 0 mph (North)    
Max Wind Speed 0 mph    
Max Gust Speed -    
Visibility 10 miles    
Events      
T = Trace of Precipitation, MM = Missing Value Source: NWS Daily Summary

Daily Weather History Graph

Daily Weather History Graph

Search for Another Location

Airport:

Trip Planner

Search our weather history database for the weather conditions in past years. The results will help you decide how hot, cold, wet, or windy it might be!

Date:

Astronomy

Jun. 17, 2012 Rise Set
Actual Time 5:35 AM CDT 8:01 PM CDT
Civil Twilight 5:05 AM CDT 8:31 PM CDT
Nautical Twilight 4:29 AM CDT 9:07 PM CDT
Astronomical Twilight 3:50 AM CDT 9:47 PM CDT
Moon 4:01 AM CDT (6/17) 6:31 PM CDT (6/17)
Length of Visible Light 15h 25m
Length of Day
14h 26m
Waning Crescent, 3% of the Moon is Illuminated
Jun 17
Waning Crescent
Jun 19
New
Jun 26
First Quarter
Jul 3
Full
Jul 10
Last Quarter

Hourly Weather History & Observations

Time (CDT) Temp. Heat Index Dew Point Humidity Pressure Visibility Wind Dir Wind Speed Gust Speed Precip Events Conditions
12:15 AM 73.0 °F - 68.4 °F 85% 30.16 in 10.0 mi Calm Calm - N/A   Clear
12:35 AM 72.5 °F - 69.3 °F 90% 30.16 in 10.0 mi Calm Calm - N/A   Clear
12:55 AM 72.1 °F - 69.3 °F 91% 30.16 in 10.0 mi Calm Calm - N/A   Clear
1:15 AM 71.6 °F - 68.9 °F 91% 30.16 in 10.0 mi Calm Calm - N/A   Clear
1:35 AM 68.0 °F - 67.8 °F 99% 30.16 in 10.0 mi Calm Calm - N/A   Clear
1:55 AM 66.9 °F - 66.9 °F 100% 30.16 in 10.0 mi Calm Calm - N/A   Clear
2:15 AM 65.5 °F - 65.5 °F 100% 30.16 in 10.0 mi Calm Calm - N/A   Clear
2:35 AM 63.9 °F - 63.9 °F 100% 30.15 in 10.0 mi Calm Calm - N/A   Clear
2:55 AM 63.0 °F - 63.0 °F 100% 30.14 in 10.0 mi Calm Calm - N/A   Clear
3:15 AM 63.0 °F - 63.0 °F 100% 30.14 in 7.0 mi Calm Calm - N/A   Clear
3:35 AM 62.8 °F - 62.8 °F 100% 30.13 in 10.0 mi Calm Calm - N/A   Clear
3:55 AM 64.8 °F - 64.8 °F 100% 30.13 in 10.0 mi Calm Calm - N/A   Clear
4:15 AM 68.7 °F - 67.3 °F 95% 30.14 in 10.0 mi Calm Calm - N/A   Clear
4:35 AM 65.3 °F - 64.6 °F 98% 30.15 in 10.0 mi Calm Calm - N/A   Clear
4:55 AM 61.5 °F - 61.5 °F 100% 30.15 in 10.0 mi Calm Calm - N/A   Clear
5:15 AM 61.5 °F - 61.5 °F 100% 30.16 in 10.0 mi Calm Calm - N/A   Clear
5:35 AM 60.8 °F - 60.8 °F 100% 30.16 in 7.0 mi Calm Calm - N/A   Clear
5:55 AM 60.4 °F - 60.4 °F 100% 30.16 in 7.0 mi Calm Calm - N/A   Clear
6:15 AM 61.3 °F - 61.3 °F 100% 30.16 in 7.0 mi Calm Calm - N/A   Mostly Cloudy
6:35 AM 65.1 °F - 65.1 °F 100% 30.17 in 10.0 mi Calm Calm - N/A   Scattered Clouds
6:55 AM 68.0 °F - 68.0 °F 100% 30.18 in 10.0 mi Calm Calm - N/A   Scattered Clouds
7:15 AM 69.6 °F - 69.3 °F 99% 30.17 in 10.0 mi Calm Calm - N/A   Scattered Clouds
7:35 AM 73.0 °F - 69.3 °F 88% 30.18 in 10.0 mi Calm Calm - N/A   Scattered Clouds
7:55 AM 73.0 °F - 67.8 °F 84% 30.18 in 10.0 mi Calm Calm - N/A   Scattered Clouds
8:15 AM 73.6 °F - 68.0 °F 83% 30.19 in 10.0 mi Calm Calm - N/A   Scattered Clouds
8:35 AM 75.4 °F - 67.8 °F 77% 30.19 in 10.0 mi Calm Calm - N/A   Clear
8:55 AM 75.6 °F - 62.1 °F 63% 30.18 in 10.0 mi Calm Calm - N/A   Clear
9:15 AM 77.5 °F - 62.1 °F 59% 30.18 in 10.0 mi Calm Calm - N/A   Clear
10:15 AM 79.9 °F - 59.9 °F 50% 30.17 in 10.0 mi Calm Calm - N/A   Clear
10:35 AM 80.6 °F 81.2 °F 60.1 °F 49% 30.16 in 10.0 mi Calm Calm - N/A   Clear
10:55 AM 80.8 °F 81.4 °F 59.7 °F 49% 30.16 in 10.0 mi Calm Calm - N/A   Clear
11:15 AM 81.7 °F 81.8 °F 58.5 °F 45% 30.15 in 10.0 mi Calm Calm - N/A   Clear
11:35 AM 82.6 °F 82.3 °F 58.1 °F 43% 30.15 in 10.0 mi Calm Calm - N/A   Scattered Clouds
11:55 AM 83.1 °F 82.7 °F 57.9 °F 42% 30.14 in 10.0 mi Calm Calm - N/A   Scattered Clouds
12:15 PM 82.0 °F 81.8 °F 57.2 °F 43% 30.15 in 10.0 mi Calm Calm - N/A   Scattered Clouds
12:35 PM 84.2 °F 83.5 °F 57.7 °F 40% 30.14 in 10.0 mi Calm Calm - N/A   Clear
12:55 PM 85.6 °F 84.7 °F 57.6 °F 38% 30.13 in 10.0 mi Calm Calm - N/A   Clear
1:15 PM 85.8 °F 84.7 °F 56.7 °F 37% 30.12 in 10.0 mi Calm Calm - N/A   Clear
1:35 PM 87.8 °F 86.5 °F 57.0 °F 35% 30.11 in 10.0 mi Calm Calm - N/A   Clear
1:55 PM 88.2 °F 86.7 °F 56.7 °F 34% 30.10 in 10.0 mi Calm Calm - N/A   Clear
2:15 PM 88.2 °F 86.9 °F 57.2 °F 35% 30.10 in 10.0 mi Calm Calm - N/A   Clear
2:35 PM 88.2 °F 86.9 °F 57.6 °F 35% 30.09 in 10.0 mi Calm Calm - N/A   Scattered Clouds
2:55 PM 88.2 °F 86.7 °F 56.8 °F 34% 30.09 in 10.0 mi Calm Calm - N/A   Scattered Clouds
3:15 PM 87.6 °F 86.3 °F 56.7 °F 35% 30.08 in 10.0 mi Calm Calm - N/A   Clear
3:35 PM 87.6 °F 86.1 °F 56.1 °F 34% 30.07 in 10.0 mi Calm Calm - N/A   Clear
3:55 PM 88.2 °F 86.7 °F 56.8 °F 34% 30.06 in 10.0 mi Calm Calm - N/A   Clear
4:15 PM 88.2 °F 86.9 °F 57.2 °F 35% 30.06 in 10.0 mi Calm Calm - N/A   Clear
4:35 PM 88.2 °F 87.1 °F 57.9 °F 36% 30.05 in 10.0 mi Calm Calm - N/A   Clear
4:55 PM 88.2 °F 87.1 °F 58.3 °F 36% 30.04 in 10.0 mi Calm Calm - N/A   Clear
5:15 PM 88.2 °F 87.3 °F 58.5 °F 37% 30.04 in 10.0 mi Calm Calm - N/A   Scattered Clouds
5:35 PM 86.7 °F 85.4 °F 57.0 °F 36% 30.03 in 10.0 mi Calm Calm - N/A   Scattered Clouds
5:55 PM 85.6 °F 84.7 °F 57.2 °F 38% 30.02 in 10.0 mi Calm Calm - N/A   Scattered Clouds
6:15 PM 85.6 °F 85.0 °F 58.5 °F 40% 30.03 in 10.0 mi Calm Calm - N/A   Scattered Clouds
6:35 PM 84.7 °F 84.2 °F 58.3 °F 41% 30.04 in 10.0 mi Calm Calm - N/A   Clear
6:55 PM 82.9 °F 82.4 °F 57.0 °F 41% 30.03 in 10.0 mi Calm Calm - N/A   Scattered Clouds
7:15 PM 81.9 °F 81.7 °F 57.6 °F 43% 30.04 in 10.0 mi Calm Calm - N/A   Clear
7:55 PM 78.3 °F - 60.3 °F 54% 30.03 in 10.0 mi Calm Calm - N/A   Clear
8:15 PM 73.6 °F - 65.7 °F 76% 30.04 in 10.0 mi Calm Calm - N/A   Clear
8:35 PM 73.0 °F - 70.2 °F 91% 30.04 in 10.0 mi Calm Calm - N/A   Clear
8:55 PM 72.0 °F - 70.3 °F 95% 30.04 in 10.0 mi Calm Calm - N/A   Clear
9:15 PM 71.2 °F - 70.5 °F 98% 30.04 in 10.0 mi Calm Calm - N/A   Clear
9:35 PM 69.4 °F - 68.9 °F 98% 30.04 in 10.0 mi Calm Calm - N/A   Clear
9:55 PM 69.3 °F - 68.4 °F 97% 30.04 in 10.0 mi Calm Calm - N/A   Clear
10:15 PM 75.0 °F - 64.9 °F 71% 30.05 in 10.0 mi Calm Calm - N/A   Clear
10:55 PM 75.4 °F - 60.8 °F 60% 30.05 in 10.0 mi Calm Calm - N/A   Clear
11:35 PM 73.6 °F - 61.0 °F 65% 30.05 in 10.0 mi Calm Calm - N/A   Clear
11:55 PM 73.0 °F - 61.9 °F 68% 30.04 in 10.0 mi Calm Calm - N/A   Clear